Time,TemperatureF,DewpointF,PressureIn,WindDirection,WindDirectionDegrees,WindSpeedMPH,WindSpeedGustMPH,Humidity,HourlyPrecipIn,Conditions,Clouds,dailyrainin,SoftwareType,DateUTC
2013-05-17 00:03:00,53.0,47.0,29.85,NW,311,0.0,20.0,80,0.00,,,0.00,,2013-05-17 04:03:00,
2013-05-17 00:13:00,53.0,47.0,29.85,NW,311,0.0,20.0,80,0.00,,,0.00,,2013-05-17 04:13:00,
2013-05-17 00:23:00,53.0,47.0,29.85,NW,311,0.0,20.0,80,0.00,,,0.00,,2013-05-17 04:23:00,
2013-05-17 00:33:00,53.0,47.0,29.85,NNW,348,2.0,17.0,81,0.00,,,0.00,,2013-05-17 04:33:00,
2013-05-17 00:43:00,53.0,47.0,29.85,NNW,348,2.0,17.0,81,0.00,,,0.00,,2013-05-17 04:43:00,
2013-05-17 00:53:00,53.0,47.0,29.85,NNW,348,2.0,17.0,81,0.00,,,0.00,,2013-05-17 04:53:00,
2013-05-17 01:03:00,54.0,47.0,29.87,NNW,331,3.0,17.0,78,0.00,,,0.00,,2013-05-17 05:03:00,
2013-05-17 01:14:00,54.0,47.0,29.87,NNW,331,3.0,17.0,78,0.00,,,0.00,,2013-05-17 05:14:00,
2013-05-17 01:22:00,54.0,47.0,29.87,NNW,331,3.0,17.0,78,0.00,,,0.00,,2013-05-17 05:22:00,
2013-05-17 01:32:00,55.0,47.0,29.87,NW,313,1.0,17.0,75,0.00,,,0.00,,2013-05-17 05:32:00,
2013-05-17 01:42:00,55.0,47.0,29.87,NW,313,1.0,17.0,75,0.00,,,0.00,,2013-05-17 05:42:00,
2013-05-17 01:52:00,55.0,47.0,29.87,NW,313,1.0,17.0,75,0.00,,,0.00,,2013-05-17 05:52:00,
2013-05-17 02:02:00,54.0,46.0,29.88,NW,322,0.0,17.0,73,0.00,,,0.00,,2013-05-17 06:02:00,
2013-05-17 02:11:00,54.0,46.0,29.88,NW,322,0.0,17.0,73,0.00,,,0.00,,2013-05-17 06:11:00,
2013-05-17 02:22:00,54.0,46.0,29.88,NW,322,0.0,17.0,73,0.00,,,0.00,,2013-05-17 06:22:00,
2013-05-17 02:32:00,54.0,45.0,29.88,NW,318,1.0,17.0,71,0.00,,,0.00,,2013-05-17 06:32:00,
2013-05-17 02:42:00,54.0,45.0,29.88,NW,318,1.0,17.0,71,0.00,,,0.00,,2013-05-17 06:42:00,
2013-05-17 02:52:00,54.0,45.0,29.88,NW,318,1.0,17.0,71,0.00,,,0.00,,2013-05-17 06:52:00,
2013-05-17 03:02:00,54.0,44.0,29.89,NW,322,2.0,17.0,70,0.00,,,0.00,,2013-05-17 07:02:00,
2013-05-17 03:11:00,54.0,44.0,29.89,NW,322,2.0,17.0,70,0.00,,,0.00,,2013-05-17 07:11:00,
2013-05-17 03:21:00,54.0,44.0,29.89,NW,322,2.0,17.0,70,0.00,,,0.00,,2013-05-17 07:21:00,
2013-05-17 03:32:00,53.0,43.0,29.90,North,356,2.0,17.0,69,0.00,,,0.00,,2013-05-17 07:32:00,
2013-05-17 03:43:00,53.0,43.0,29.90,North,356,2.0,17.0,69,0.00,,,0.00,,2013-05-17 07:43:00,
2013-05-17 03:53:00,53.0,43.0,29.90,North,356,2.0,17.0,69,0.00,,,0.00,,2013-05-17 07:53:00,
2013-05-17 04:02:00,53.0,43.0,29.91,NW,315,3.0,17.0,68,0.00,,,0.00,,2013-05-17 08:02:00,
2013-05-17 04:12:00,53.0,43.0,29.91,NW,315,3.0,17.0,68,0.00,,,0.00,,2013-05-17 08:12:00,
2013-05-17 04:23:00,53.0,43.0,29.91,NW,315,3.0,17.0,68,0.00,,,0.00,,2013-05-17 08:23:00,
2013-05-17 04:33:00,53.0,43.0,29.91,NW,315,3.0,17.0,68,0.00,,,0.00,,2013-05-17 08:33:00,
2013-05-17 04:42:00,53.0,43.0,29.91,NW,315,3.0,17.0,68,0.00,,,0.00,,2013-05-17 08:42:00,
2013-05-17 05:02:00,48.0,42.0,29.95,NNW,346,2.0,17.0,81,0.00,,,0.00,,2013-05-17 09:02:00,
2013-05-17 05:12:00,48.0,42.0,29.95,NNW,346,2.0,17.0,81,0.00,,,0.00,,2013-05-17 09:12:00,
2013-05-17 05:23:00,48.0,42.0,29.95,NNW,346,2.0,17.0,81,0.00,,,0.00,,2013-05-17 09:23:00,
2013-05-17 05:33:00,50.0,47.0,29.96,North,353,2.0,17.0,88,0.00,,,0.00,,2013-05-17 09:33:00,
2013-05-17 05:42:00,50.0,47.0,29.96,North,353,2.0,17.0,88,0.00,,,0.00,,2013-05-17 09:42:00,
2013-05-17 05:53:00,50.0,47.0,29.96,North,353,2.0,17.0,88,0.00,,,0.00,,2013-05-17 09:53:00,
2013-05-17 06:03:00,49.0,46.0,29.98,NW,325,2.0,17.0,90,0.00,,,0.00,,2013-05-17 10:03:00,
2013-05-17 06:12:00,49.0,46.0,29.98,NW,325,2.0,17.0,90,0.00,,,0.00,,2013-05-17 10:12:00,
2013-05-17 06:23:00,49.0,46.0,29.98,NW,325,2.0,17.0,90,0.00,,,0.00,,2013-05-17 10:23:00,
2013-05-17 06:33:00,49.0,46.0,29.98,NW,325,2.0,17.0,90,0.00,,,0.00,,2013-05-17 10:33:00,
2013-05-17 06:42:00,49.0,46.0,29.98,NW,325,2.0,17.0,90,0.00,,,0.00,,2013-05-17 10:42:00,
2013-05-17 07:02:00,49.0,46.0,30.00,WNW,301,0.0,17.0,91,0.00,,,0.00,,2013-05-17 11:02:00,
2013-05-17 07:12:00,49.0,46.0,30.00,WNW,301,0.0,17.0,91,0.00,,,0.00,,2013-05-17 11:12:00,
2013-05-17 07:23:00,49.0,46.0,30.00,WNW,301,0.0,17.0,91,0.00,,,0.00,,2013-05-17 11:23:00,
2013-05-17 07:34:00,51.0,48.0,30.01,NNW,337,1.0,17.0,89,0.00,,,0.00,,2013-05-17 11:34:00,
2013-05-17 07:42:00,51.0,48.0,30.01,NNW,337,1.0,17.0,89,0.00,,,0.00,,2013-05-17 11:42:00,
2013-05-17 07:53:00,51.0,48.0,30.01,NNW,337,1.0,17.0,89,0.00,,,0.00,,2013-05-17 11:53:00,
2013-05-17 08:03:00,52.0,47.0,30.03,NW,324,1.0,17.0,83,0.00,,,0.00,,2013-05-17 12:03:00,
2013-05-17 08:12:00,52.0,47.0,30.03,NW,324,1.0,17.0,83,0.00,,,0.00,,2013-05-17 12:12:00,
2013-05-17 08:23:00,52.0,47.0,30.03,NW,324,1.0,17.0,83,0.00,,,0.00,,2013-05-17 12:23:00,
2013-05-17 08:32:00,54.0,47.0,30.03,NNW,345,4.0,17.0,77,0.00,,,0.00,,2013-05-17 12:32:00,
2013-05-17 08:43:00,54.0,47.0,30.03,NNW,345,4.0,17.0,77,0.00,,,0.00,,2013-05-17 12:43:00,
2013-05-17 08:53:00,54.0,47.0,30.03,NNW,345,4.0,17.0,77,0.00,,,0.00,,2013-05-17 12:53:00,
2013-05-17 09:03:00,54.0,47.0,30.03,NNW,345,4.0,17.0,77,0.00,,,0.00,,2013-05-17 13:03:00,
2013-05-17 09:12:00,54.0,47.0,30.03,NNW,345,4.0,17.0,77,0.00,,,0.00,,2013-05-17 13:12:00,
2013-05-17 09:13:00,56.0,47.0,30.06,NNW,328,7.0,17.0,72,0.00,,,0.00,,2013-05-17 13:13:00,
2013-05-17 09:33:00,56.0,47.0,30.06,NNW,328,7.0,17.0,72,0.00,,,0.00,,2013-05-17 13:33:00,
2013-05-17 09:42:00,56.0,47.0,30.06,NNW,328,7.0,17.0,72,0.00,,,0.00,,2013-05-17 13:42:00,
2013-05-17 09:52:00,56.0,47.0,30.06,NNW,328,7.0,17.0,72,0.00,,,0.00,,2013-05-17 13:52:00,
2013-05-17 10:02:00,56.0,47.0,30.06,NNW,328,7.0,17.0,72,0.00,,,0.00,,2013-05-17 14:02:00,
2013-05-17 10:43:00,58.0,47.0,30.07,NNW,333,1.0,17.0,67,0.00,,,0.00,,2013-05-17 14:43:00,
2013-05-17 11:03:00,58.0,47.0,30.07,NNW,333,1.0,17.0,67,0.00,,,0.00,,2013-05-17 15:03:00,
2013-05-17 11:14:00,58.0,47.0,30.07,NNW,333,1.0,17.0,67,0.00,,,0.00,,2013-05-17 15:14:00,
2013-05-17 11:25:00,58.0,47.0,30.07,NNW,333,1.0,17.0,67,0.00,,,0.00,,2013-05-17 15:25:00,
2013-05-17 11:37:00,58.0,47.0,30.07,NNW,333,1.0,17.0,67,0.00,,,0.00,,2013-05-17 15:37:00,
2013-05-17 12:07:00,61.0,47.0,30.07,WNW,287,1.0,17.0,61,0.00,,,0.00,,2013-05-17 16:07:00,
2013-05-17 12:14:00,61.0,47.0,30.07,WNW,287,1.0,17.0,61,0.00,,,0.00,,2013-05-17 16:14:00,
2013-05-17 12:26:00,61.0,47.0,30.07,WNW,287,1.0,17.0,61,0.00,,,0.00,,2013-05-17 16:26:00,
2013-05-17 12:37:00,62.0,46.0,30.07,NW,312,4.0,17.0,56,0.00,,,0.00,,2013-05-17 16:37:00,
2013-05-17 12:43:00,63.0,47.0,30.07,NNW,328,5.0,17.0,56,0.00,,,0.00,,2013-05-17 16:43:00,
2013-05-17 12:49:00,62.0,46.0,30.07,NW,312,4.0,17.0,56,0.00,,,0.00,,2013-05-17 16:49:00,
2013-05-17 12:56:00,62.0,46.0,30.07,NW,312,4.0,17.0,56,0.00,,,0.00,,2013-05-17 16:56:00,
2013-05-17 13:08:00,63.0,47.0,30.07,NNW,328,5.0,17.0,56,0.00,,,0.00,,2013-05-17 17:08:00,
2013-05-17 13:19:00,63.0,47.0,30.07,NNW,328,5.0,17.0,56,0.00,,,0.00,,2013-05-17 17:19:00,
2013-05-17 13:30:00,63.0,47.0,30.07,NNW,328,5.0,17.0,56,0.00,,,0.00,,2013-05-17 17:30:00,
2013-05-17 13:40:00,63.0,-99.9,30.07,NNW,328,5.0,17.0,56,0.00,,,0.00,,2013-05-17 17:40:00,
2013-05-17 14:09:00,66.0,47.0,30.08,North,353,2.0,18.0,51,0.00,,,0.00,,2013-05-17 18:09:00,
2013-05-17 14:20:00,66.0,47.0,30.08,North,353,2.0,18.0,51,0.00,,,0.00,,2013-05-17 18:20:00,
2013-05-17 14:30:00,66.0,47.0,30.08,North,353,2.0,18.0,51,0.00,,,0.00,,2013-05-17 18:30:00,
2013-05-17 14:40:00,67.0,-99.9,30.09,NNE,22,3.0,18.0,51,0.00,,,0.00,,2013-05-17 18:40:00,
2013-05-17 14:50:00,-999.0,-99.9,30.09,NNE,22,3.0,18.0,51,0.00,,,0.00,,2013-05-17 18:50:00,
2013-05-17 15:00:00,67.0,-99.9,30.09,NNE,22,3.0,18.0,51,0.00,,,0.00,,2013-05-17 19:00:00,
2013-05-17 15:10:00,68.0,48.0,30.09,NW,308,2.0,18.0,49,0.00,,,0.00,,2013-05-17 19:10:00,
2013-05-17 15:20:00,68.0,48.0,30.09,NW,308,2.0,18.0,49,0.00,,,0.00,,2013-05-17 19:20:00,
2013-05-17 15:30:00,68.0,48.0,30.09,NW,308,2.0,18.0,49,0.00,,,0.00,,2013-05-17 19:30:00,
2013-05-17 15:40:00,69.0,48.0,30.09,NNW,336,1.0,18.0,48,0.00,,,0.00,,2013-05-17 19:40:00,
2013-05-17 15:50:00,69.0,48.0,30.09,NNW,336,1.0,18.0,48,0.00,,,0.00,,2013-05-17 19:50:00,
2013-05-17 16:01:00,-999.0,-99.9,30.09,NNW,336,1.0,18.0,48,0.00,,,0.00,,2013-05-17 20:01:00,
2013-05-17 16:09:00,69.0,48.0,30.09,NW,317,3.0,18.0,48,0.00,,,0.00,,2013-05-17 20:09:00,
2013-05-17 16:20:00,69.0,48.0,30.09,NW,317,3.0,18.0,48,0.00,,,0.00,,2013-05-17 20:20:00,
2013-05-17 16:30:00,69.0,48.0,30.09,NW,317,3.0,18.0,48,0.00,,,0.00,,2013-05-17 20:30:00,
2013-05-17 16:40:00,69.0,46.0,30.09,NW,316,4.0,18.0,44,0.00,,,0.00,,2013-05-17 20:40:00,
2013-05-17 16:50:00,69.0,46.0,30.09,NW,316,4.0,18.0,44,0.00,,,0.00,,2013-05-17 20:50:00,
2013-05-17 16:58:00,69.0,46.0,30.09,NW,316,4.0,18.0,44,0.00,,,0.00,,2013-05-17 20:58:00,
2013-05-17 17:07:00,69.0,46.0,30.10,NNW,342,3.0,18.0,44,0.00,,,0.00,,2013-05-17 21:07:00,
2013-05-17 17:17:00,69.0,46.0,30.10,NNW,342,3.0,18.0,44,0.00,,,0.00,,2013-05-17 21:17:00,
2013-05-17 17:26:00,69.0,46.0,30.10,NNW,342,3.0,18.0,44,0.00,,,0.00,,2013-05-17 21:26:00,
2013-05-17 17:39:00,68.0,45.0,30.11,North,349,1.0,18.0,43,0.00,,,0.00,,2013-05-17 21:39:00,
2013-05-17 17:49:00,68.0,45.0,30.11,North,349,1.0,18.0,43,0.00,,,0.00,,2013-05-17 21:49:00,
2013-05-17 17:58:00,68.0,45.0,30.11,North,349,1.0,18.0,43,0.00,,,0.00,,2013-05-17 21:58:00,
2013-05-17 18:07:00,67.0,44.0,30.12,NNE,27,3.0,18.0,44,0.00,,,0.00,,2013-05-17 22:07:00,
2013-05-17 18:13:00,66.0,44.0,30.13,WNW,288,0.0,18.0,45,0.00,,,0.00,,2013-05-17 22:13:00,
2013-05-17 18:17:00,67.0,44.0,30.12,NNE,27,3.0,18.0,44,0.00,,,0.00,,2013-05-17 22:17:00,
2013-05-17 18:28:00,67.0,44.0,30.12,NNE,27,3.0,18.0,44,0.00,,,0.00,,2013-05-17 22:28:00,
2013-05-17 18:38:00,66.0,44.0,30.13,WNW,288,0.0,18.0,45,0.00,,,0.00,,2013-05-17 22:38:00,
2013-05-17 18:47:00,66.0,44.0,30.13,WNW,288,0.0,18.0,45,0.00,,,0.00,,2013-05-17 22:47:00,
2013-05-17 18:55:00,66.0,44.0,30.13,WNW,288,0.0,18.0,45,0.00,,,0.00,,2013-05-17 22:55:00,
2013-05-17 19:04:00,66.0,44.0,30.13,WNW,288,0.0,18.0,45,0.00,,,0.00,,2013-05-17 23:04:00,
2013-05-17 19:13:00,58.0,49.0,30.16,SE,140,3.0,18.0,71,0.00,,,0.00,,2013-05-17 23:13:00,
2013-05-17 19:38:00,58.0,49.0,30.16,SE,140,3.0,18.0,71,0.00,,,0.00,,2013-05-17 23:38:00,
2013-05-17 19:47:00,58.0,49.0,30.16,SE,140,3.0,18.0,71,0.00,,,0.00,,2013-05-17 23:47:00,
2013-05-17 19:54:00,58.0,49.0,30.16,SE,140,3.0,18.0,71,0.00,,,0.00,,2013-05-17 23:54:00,
2013-05-17 20:02:00,58.0,49.0,30.16,SE,140,3.0,18.0,71,0.00,,,0.00,,2013-05-18 00:02:00,
2013-05-17 21:03:00,50.0,50.0,30.22,ENE,74,4.0,18.0,99,0.00,,,0.00,,2013-05-18 01:03:00,
2013-05-17 21:13:00,50.0,50.0,30.22,ENE,74,4.0,18.0,99,0.00,,,0.00,,2013-05-18 01:13:00,
2013-05-17 21:24:00,50.0,50.0,30.22,ENE,74,4.0,18.0,99,0.00,,,0.00,,2013-05-18 01:24:00,
2013-05-17 21:32:00,49.0,48.0,30.24,ESE,104,3.0,18.0,98,0.00,,,0.00,,2013-05-18 01:32:00,
2013-05-17 21:43:00,49.0,48.0,30.24,ESE,104,3.0,18.0,98,0.00,,,0.00,,2013-05-18 01:43:00,
2013-05-17 21:52:00,49.0,48.0,30.24,ESE,104,3.0,18.0,98,0.00,,,0.00,,2013-05-18 01:52:00,
2013-05-17 22:03:00,49.0,48.0,30.25,South,173,1.0,18.0,97,0.00,,,0.00,,2013-05-18 02:03:00,
2013-05-17 22:12:00,49.0,48.0,30.25,South,173,1.0,18.0,97,0.00,,,0.00,,2013-05-18 02:12:00,
2013-05-17 22:23:00,49.0,48.0,30.25,South,173,1.0,18.0,97,0.00,,,0.00,,2013-05-18 02:23:00,
2013-05-17 22:32:00,49.0,48.0,30.26,South,170,2.0,18.0,97,0.00,,,0.00,,2013-05-18 02:32:00,
2013-05-17 22:42:00,49.0,48.0,30.26,South,170,2.0,18.0,97,0.00,,,0.00,,2013-05-18 02:42:00,
2013-05-17 22:54:00,49.0,48.0,30.26,South,170,2.0,18.0,97,0.00,,,0.00,,2013-05-18 02:54:00,
2013-05-17 23:03:00,48.0,47.0,30.27,SSE,167,0.0,18.0,98,0.00,,,0.00,,2013-05-18 03:03:00,
2013-05-17 23:12:00,48.0,47.0,30.27,SSE,167,0.0,18.0,98,0.00,,,0.00,,2013-05-18 03:12:00,
2013-05-17 23:23:00,48.0,47.0,30.27,SSE,167,0.0,18.0,98,0.00,,,0.00,,2013-05-18 03:23:00,
2013-05-17 23:33:00,47.0,47.0,30.27,SSE,167,0.0,18.0,99,0.00,,,0.00,,2013-05-18 03:33:00,
2013-05-17 23:43:00,47.0,47.0,30.27,SSE,167,0.0,18.0,99,0.00,,,0.00,,2013-05-18 03:43:00,
2013-05-17 23:53:00,47.0,47.0,30.27,SSE,167,0.0,18.0,99,0.00,,,0.00,,2013-05-18 03:53:00,